Flight Track Log - Related Links

Times and Time Zones

All times are in EDT time to prevent confusion due to time zone crossing. See the SWA2150 flight status page for this flight to view local times or setup timezone preferences in your user account.

Time Position Orientation Groundspeed Altitude Reporting Facility
EDT Latitude Longitude Course Direction KTS MPH feet Rate Location/Type
19:28 34.1833 -118.3667 338° Northwest 162 186 2,300  Level Southern California TRACON
19:30 34.2297 -118.4614 301° West 247 284 9,000 3,717 Climbing Los Angeles Center
19:31 34.2992 -118.5097 330° Northwest 290 334 13,700 3,221 Climbing Los Angeles Center
19:33 34.3797 -118.5653 330° Northwest 342 394 16,300 3,176 Climbing Los Angeles Center
19:34 34.5830 -118.7415 338° Northwest  Level FlightAware Approximate
19:34 34.4853 -118.6372 331° Northwest 363 418 20,900  Level Los Angeles Center
19:35 34.5781 -118.7019 330° Northwest 382 440 24,100 3,145 Climbing Los Angeles Center
19:36 34.6914 -118.7850 329° Northwest 398 458 27,400 2,758 Climbing Los Angeles Center
19:37 34.7928 -118.8556 330° Northwest 419 482 29,800 2,439 Climbing Los Angeles Center
19:38 34.8842 -118.9417 322° Northwest 425 489 32,400 2,537 Climbing Los Angeles Center
19:39 34.9725 -119.0272 322° Northwest 406 467 35,000 1,984 Climbing Los Angeles Center
19:40 35.0614 -119.1103 323° Northwest 404 465 36,500 1,476 Climbing Los Angeles Center
19:41 35.1497 -119.2003 320° Northwest 421 484 38,100 1,412 Climbing Los Angeles Center
19:42 35.2586 -119.3050 322° Northwest 418 481 39,700 781 Climbing Los Angeles Center
19:43 35.3656 -119.4119 321° Northwest 416 479 40,000 132 Climbing Los Angeles Center
19:44 35.4742 -119.5194 321° Northwest 420 483 40,000  Level Los Angeles Center
19:45 35.5631 -119.6075 321° Northwest 416 479 40,000  Level Los Angeles Center
19:46 35.6528 -119.6972 321° Northwest 418 481 40,000  Level Los Angeles Center
19:47 35.7597 -119.8047 321° Northwest 416 479 40,000  Level Los Angeles Center
19:48 35.8483 -119.8939 321° Northwest 413 475 40,000  Level Los Angeles Center
19:49 35.9358 -119.9833 320° Northwest 413 475 40,000  Level Los Angeles Center
19:51 36.0422 -120.0864 322° Northwest 408 470 40,000  Level Oakland Center
19:52 36.1308 -120.1769 320° Northwest 413 475 40,000 -195 Level Oakland Center
19:53 36.2197 -120.2683 320° Northwest 417 480 39,600 -927 Descending Oakland Center
19:54 36.3075 -120.3589 320° Northwest 414 476 38,100 -2,115 Descending Oakland Center
19:55 36.3969 -120.4503 321° Northwest 418 481 35,300 -2,557 Descending Oakland Center
19:56 36.4842 -120.5408 320° Northwest 411 473 32,900 -2,262 Descending Oakland Center
19:57 36.5681 -120.6275 320° Northwest 395 455 30,700 -2,098 Descending Oakland Center
19:58 36.6469 -120.7111 320° Northwest 377 434 28,600 -2,049 Descending Oakland Center
19:59 36.7239 -120.7894 321° Northwest 358 412 26,500 -2,213 Descending Oakland Center
20:00 36.8100 -120.8842 319° Northwest 346 398 24,100 -2,115 Descending Oakland Center
20:01 36.8758 -120.9600 317° Northwest 335 386 22,200 -1,869 Descending Oakland Center
20:02 36.9417 -121.0364 317° Northwest 324 373 20,300 -1,854 Descending Oakland Center
20:03 37.0069 -121.1103 318° Northwest 318 366 18,400 -1,902 Descending Oakland Center
20:04 37.0722 -121.1867 317° Northwest 309 356 16,400 -1,770 Descending Oakland Center
20:05 37.1336 -121.2569 318° Northwest 311 358 14,800 -1,623 Descending Oakland Center
20:06 37.1958 -121.3294 317° Northwest 307 353 13,100 -1,721 Descending Oakland Center
20:07 37.2575 -121.4025 317° Northwest 304 350 11,300 -1,561 Descending Oakland Center
20:08 37.3186 -121.4728 318° Northwest 300 345 9,900 -1,268 Descending Oakland Center
20:09 37.3803 -121.5444 317° Northwest 296 341 8,700 -1,235 Descending Oakland Center
20:10 37.4333 -121.6000 320° Northwest 289 333 7,800 -1,129 Descending Northern Cal TRACON
20:11 37.4833 -121.6667 313° West 283 326 6,800 -900 Descending Northern Cal TRACON
20:12 37.5167 -121.7667 293° West 270 311 6,000 -400 Descending Northern Cal TRACON
20:13 37.5500 -121.8500 297° West 261 300 6,000 -700 Level Northern Cal TRACON
20:14 37.5667 -121.9333 284° West 253 291 4,600 -1,000 Descending Northern Cal TRACON
20:15 37.6000 -122.0000 302° West 232 267 4,000 -900 Descending Northern Cal TRACON
20:16 37.6167 -122.0833 284° West 205 236 2,800 -1,150 Descending Northern Cal TRACON
20:17 37.6500 -122.1333 310° West 180 207 1,700 -955 Descending Northern Cal TRACON
20:17 37.6536 -122.1439 293° West 195 224 1,400 -674 Descending Oakland Center
20:18 37.6781 -122.1794 311° West 163 188 700 -639 Descending Oakland Center
20:19 37.6972 -122.2081 310° West 131 151 100 -590 Descending Oakland Center
20:21 37.7167 -122.2167 270° West  Level FlightAware Approximate
20:28 37.7213 -122.2207 270° West  Level Estimated

Login

Don't have an account? Register now (free) for customized features, flight alerts, and more!